Temperature
2 2 2 1 1 -0 -1 -2 -3 -4 -4 -3 -3 -3 -2 -2 -1 -2 -1 -2 -2 -3 -3 -3 -3 -3 -3 -2 -2 -2 -1 -1 -1 -1 -0 0 1 1
2 1 1 1 -0 -1 -1 -2 -3 -3 -4 -4 -4 -4 -4 -4 -3 -3 -3 -3 -3 -3 -3 -3 -3 -3 -3 -3 -3 -2 -2 -2 -1 -1 -1 -0 0 1
1 1 0 -0 -1 -1 -2 -2 -3 -3 -4 -4 -4 -5 -5 -5 -4 -4 -4 -4 -4 -3 -4 -4 -4 -4 -3 -3 -3 -3 -2 -2 -2 -1 -1 -1 -0 0
1 0 -0 -1 -1 -2 -2 -3 -3 -3 -4 -5 -5 -5 -5 -5 -5 -5 -5 -5 -4 -4 -4 -4 -4 -4 -4 -3 -3 -3 -3 -3 -2 -2 -2 -1 -1 -1
0 -0 -1 -1 -2 -2 -3 -3 -3 -4 -5 -5 -6 -6 -6 -6 -6 -5 -5 -5 -5 -5 -4 -4 -4 -4 -4 -4 -3 -3 -3 -3 -3 -3 -2 -2 -2 -1
-0 -1 -1 -2 -2 -3 -3 -4 -4 -5 -5 -5 -6 -6 -6 -6 -6 -6 -6 -5 -5 -5 -5 -5 -4 -4 -4 -4 -4 -4 -4 -4 -3 -3 -3 -3 -2 -2
-1 -1 -2 -3 -3 -4 -4 -5 -5 -5 -5 -6 -6 -6 -6 -6 -6 -6 -6 -6 -6 -5 -5 -4 -4 -4 -4 -4 -4 -4 -4 -4 -4 -4 -4 -3 -3 -2
-2 -2 -3 -3 -3 -4 -5 -5 -5 -5 -6 -6 -6 -6 -6 -6 -6 -6 -6 -6 -6 -5 -5 -5 -5 -4 -4 -4 -4 -4 -4 -4 -4 -4 -4 -3 -3 -3
-2 -3 -3 -4 -4 -5 -5 -5 -5 -6 -6 -6 -6 -6 -6 -6 -6 -6 -6 -6 -6 -6 -6 -6 -5 -5 -4 -4 -4 -4 -4 -4 -4 -4 -4 -4 -3 -3
-3 -3 -4 -4 -5 -5 -5 -6 -6 -6 -6 -6 -6 -6 -6 -6 -6 -6 -6 -6 -6 -5 -6 -6 -5 -5 -5 -5 -4 -4 -4 -4 -4 -4 -4 -4 -4 -4
-3 -4 -5 -5 -5 -6 -6 -6 -6 -6 -6 -6 -6 -6 -6 -6 -6 -6 -6 -6 -6 -6 -6 -6 -6 -5 -5 -5 -4 -4 -4 -5 -5 -4 -4 -4 -4 -4
-4 -5 -5 -6 -6 -6 -6 -6 -6 -6 -6 -6 -6 -6 -6 -6 -7 -7 -7 -7 -7 -6 -6 -6 -6 -6 -6 -5 -5 -5 -5 -5 -5 -5 -5 -5 -5 -5
-5 -5 -6 -6 -6 -6 -6 -6 -6 -6 -6 -7 -7 -7 -7 -7 -7 -7 -7 -7 -7 -7 -7 -7 -7 -7 -7 -6 -6 -6 -6 -6 -5 -5 -5 -5 -5 -5
-6 -6 -6 -7 -7 -6 -6 -7 -7 -7 -7 -7 -7 -7 -7 -7 -7 -7 -7 -7 -7 -7 -7 -7 -7 -7 -7 -7 -7 -6 -6 -6 -6 -6 -6 -5 -5 -5
-6 -7 -7 -7 -7 -7 -7 -7 -7 -8 -8 -8 -8 -8 -8 -8 -8 -8 -7 -7 -7 -7 -7 -7 -7 -7 -7 -7 -7 -7 -7 -6 -6 -6 -6 -6 -6 -6
-7 -7 -7 -7 -7 -7 -8 -7 -8 -8 -8 -9 -9 -8 -8 -8 -8 -8 -8 -8 -8 -7 -7 -7 -7 -7 -7 -7 -7 -7 -7 -7 -7 -7 -7 -6 -6 -6
-7 -7 -7 -7 -8 -8 -8 -8 -8 -8 -9 -9 -9 -9 -9 -9 -8 -8 -8 -8 -8 -8 -7 -7 -7 -7 -7 -7 -7 -7 -7 -7 -7 -7 -7 -7 -6 -6
-7 -8 -8 -8 -8 -9 -9 -9 -9 -9 -9 -9 -9 -9 -9 -9 -9 -9 -9 -9 -9 -8 -8 -8 -8 -7 -7 -7 -7 -7 -7 -7 -7 -7 -7 -7 -7 -7
-8 -8 -9 -9 -9 -9 -10 -10 -10 -9 -10 -10 -10 -9 -9 -9 -9 -9 -9 -9 -9 -8 -8 -8 -8 -8 -8 -8 -7 -7 -7 -7 -7 -7 -7 -7 -7 -7
-9 -9 -9 -10 -10 -10 -10 -10 -10 -10 -10 -10 -10 -10 -10 -10 -9 -9 -9 -9 -9 -9 -9 -8 -8 -8 -8 -8 -8 -8 -8 -8 -8 -8 -8 -8 -7 -7
-9 -10 -10 -10 -11 -11 -11 -11 -10 -10 -10 -10 -10 -10 -10 -10 -10 -9 -9 -9 -9 -9 -9 -9 -8 -9 -8 -8 -8 -8 -8 -8 -8 -8 -8 -8 -8 -7
-10 -11 -11 -11 -11 -11 -11 -11 -11 -11 -11 -10 -10 -10 -10 -10 -10 -10 -9 -9 -9 -9 -9 -9 -9 -9 -9 -9 -8 -8 -8 -8 -8 -8 -8 -8 -8 -8
-11 -11 -11 -11 -11 -11 -11 -11 -11 -11 -11 -11 -11 -10 -10 -10 -10 -10 -10 -10 -9 -9 -9 -9 -9 -9 -9 -9 -9 -9 -9 -8 -8 -8 -8 -8 -8 -8
Wind_Speed
6 6 5 6 6 6 6 5 6 10 10 6 5 5 10 15 20 21 20 25 28 28 28 28 28 28 28 29 28 28 28 28 29 29 29 29 29 29
5 7 7 6 6 6 6 6 7 8 11 4 6 7 9 15 22 22 21 28 28 28 28 28 28 28 28 28 28 28 28 28 28 29 29 29 30 29
7 7 9 8 7 7 6 7 7 7 14 12 6 7 8 11 14 18 21 20 21 27 28 28 28 28 27 27 27 27 26 27 27 27 27 27 28 28
9 8 9 8 8 7 7 8 9 9 10 17 11 7 9 10 12 12 14 17 17 24 28 28 28 27 26 26 25 25 25 24 24 25 25 26 27 27
9 9 10 9 10 9 8 9 9 10 9 13 15 9 8 9 10 11 13 11 15 20 24 25 26 26 26 25 25 24 23 22 23 23 23 24 24 25
10 10 10 10 11 10 9 10 10 10 11 12 14 11 8 8 8 9 11 8 11 13 18 21 24 25 26 25 24 23 22 22 22 22 22 22 22 23
10 10 10 13 17 15 12 10 9 9 10 11 13 12 10 7 8 8 12 11 10 10 10 11 11 10 12 19 21 22 22 22 22 22 21 22 22 22
9 9 10 13 17 22 24 23 20 14 12 12 13 13 12 9 9 10 12 13 11 5 6 9 7 9 9 8 18 22 22 22 21 21 21 20 20 20
9 9 10 11 17 11 18 23 21 25 24 17 16 15 14 12 13 14 13 14 14 8 8 12 8 10 9 12 20 21 21 20 20 19 19 18 18 18
9 10 11 11 12 14 12 13 13 14 17 14 13 15 15 14 14 15 15 14 12 10 8 10 8 9 9 7 17 19 19 18 17 16 16 16 16 16
10 10 11 11 20 24 17 14 14 12 18 23 24 22 25 25 20 11 10 11 12 7 5 5 6 7 6 7 10 14 14 13 13 13 13 13 13 12
9 10 17 18 23 25 15 13 15 13 11 13 15 16 14 15 20 12 9 11 9 6 4 4 4 4 4 3 3 4 5 8 10 10 11 10 10 5
10 8 9 21 25 26 23 13 17 18 11 10 9 8 8 8 8 8 8 9 9 7 4 3 4 4 5 4 3 3 3 3 3 4 7 8 8 6
10 8 11 23 26 26 19 19 25 21 7 7 7 8 7 7 7 7 8 8 9 10 8 7 6 6 6 5 4 2 2 3 2 3 3 5 6 7
11 19 23 26 24 16 18 23 19 8 7 8 9 8 7 7 7 7 7 7 8 8 8 8 8 7 6 5 4 2 2 2 2 2 2 2 2 2
13 17 22 22 17 17 16 12 7 8 9 9 8 7 6 6 6 6 6 5 5 6 5 6 7 7 6 5 5 4 3 2 2 1 2 2 2 2
14 9 7 6 6 7 7 7 7 7 8 7 8 8 7 7 7 5 4 4 4 5 6 4 4 5 6 5 4 4 3 3 3 2 1 1 2 2
17 9 8 7 9 9 9 8 8 8 8 8 8 8 7 7 7 6 5 4 5 5 5 4 3 3 2 3 6 5 3 3 2 2 2 1 2 2
11 7 8 9 9 9 9 9 9 9 8 8 8 8 7 7 6 6 5 5 5 5 5 4 3 3 3 3 4 4 3 2 1 1 2 2 2 2
6 8 9 9 9 9 9 9 9 8 8 8 8 7 7 7 6 6 5 5 6 5 4 4 4 4 4 3 3 2 4 3 2 2 2 1 1 3
8 8 8 9 9 9 9 9 9 9 9 8 8 8 7 7 7 6 6 9 7 4 5 5 5 6 3 2 2 2 2 4 4 3 2 1 0 0
9 9 9 9 9 9 9 9 9 9 9 8 8 7 7 7 7 7 6 6 5 5 6 5 4 2 2 4 4 3 2 2 3 5 5 5 3 3
9 9 9 9 9 8 8 10 11 10 8 8 8 7 7 7 6 6 6 6 6 6 5 4 2 2 3 3 4 3 3 2 1 1 2 5 7 6
Wind_Direction
255 256 252 253 247 243 240 237 260 292 294 249 251 256 272 286 293 295 290 296 298 297 296 294 292 289 287 285 284 283 282 280 279 277 276 274 273 271
257 258 257 256 254 249 245 243 237 261 283 254 251 258 272 284 291 294 292 296 298 297 296 294 292 290 288 286 284 283 281 279 276 274 273 272 271 270
268 260 260 259 257 255 249 246 247 248 276 285 260 259 257 265 278 280 283 285 286 291 293 293 291 290 289 287 285 284 283 282 280 278 276 275 273 272
268 266 266 267 259 257 253 252 254 249 264 285 288 273 260 262 267 270 278 281 279 286 290 291 290 291 291 290 288 286 285 285 284 282 280 278 276 274
263 263 265 264 266 263 256 257 259 262 258 274 286 280 270 269 273 273 271 272 276 282 286 289 289 289 290 290 289 288 289 289 288 285 281 280 279 276
260 258 258 257 261 263 265 260 259 262 264 270 281 284 277 267 266 276 281 270 272 278 281 282 283 287 287 289 290 291 291 290 288 285 282 279 279 276
262 258 258 268 273 277 277 266 259 265 271 276 283 287 283 276 273 274 283 284 275 269 270 271 274 273 277 281 285 286 286 285 283 281 279 277 276 273
268 266 266 276 284 288 290 291 289 283 283 281 285 285 286 280 280 281 284 287 286 251 257 271 262 269 268 261 273 279 281 280 280 278 277 277 276 272
270 271 280 280 290 280 285 288 286 285 284 284 284 284 285 282 281 281 277 277 279 277 277 281 271 271 269 271 278 280 281 282 281 280 279 278 277 275
268 267 272 275 276 283 272 269 265 268 272 276 270 272 274 275 271 275 279 281 278 271 259 274 275 273 274 267 278 281 284 285 284 283 280 277 278 277
269 267 273 272 282 292 291 283 281 276 281 281 281 283 286 292 293 292 288 287 286 276 240 251 270 277 274 270 273 283 288 290 291 291 287 284 282 282
274 267 279 286 291 295 292 286 288 288 283 284 284 286 287 288 290 284 278 281 282 280 246 241 265 279 285 269 270 285 296 299 304 303 298 294 292 292
283 278 273 291 294 296 297 293 292 296 291 289 289 284 280 274 272 268 262 266 275 273 261 260 267 256 258 278 278 265 262 277 303 307 311 308 302 292
289 283 282 293 295 299 301 298 300 305 302 295 289 286 282 279 278 275 268 263 261 268 274 271 271 270 270 270 269 269 272 270 272 285 298 312 315 310
287 291 295 299 303 304 300 301 305 305 295 289 285 282 273 273 280 283 280 275 273 267 267 263 265 268 264 265 268 250 272 285 279 282 297 301 314 326
289 290 295 298 298 296 299 300 293 281 284 281 281 279 277 277 280 279 283 290 289 288 275 263 263 263 263 256 255 254 234 257 295 292 287 296 302 307
295 290 286 288 287 286 284 283 280 282 287 281 281 282 283 283 284 279 272 277 278 286 294 291 273 262 255 252 253 250 246 247 247 247 255 293 296 299
304 297 294 291 292 291 291 290 287 284 282 283 283 281 281 282 285 282 273 270 274 276 278 284 292 292 284 269 237 244 245 249 245 228 219 240 285 298
302 292 290 289 289 288 286 284 285 284 280 280 282 279 278 278 278 278 275 272 272 271 271 270 261 243 241 263 285 241 219 223 210 215 218 214 240 282
279 281 284 286 286 285 284 283 283 284 280 276 276 274 272 273 274 272 270 266 270 271 273 267 247 230 223 230 248 271 240 213 202 211 218 219 269 299
284 282 281 282 283 283 281 281 281 282 279 276 274 271 269 267 269 266 264 274 276 266 266 266 257 258 236 195 233 259 273 241 219 204 185 175 213 299
283 283 283 282 282 281 280 280 280 280 277 273 271 268 265 261 263 263 261 261 260 257 261 267 267 249 196 208 228 239 258 286 257 241 228 211 183 189
282 282 282 282 281 280 279 279 278 278 275 272 271 268 262 260 257 257 257 256 258 261 262 266 258 224 219 215 224 234 237 239 232 232 246 243 236 229
Height
1503 1500 1497 1494 1491 1488 1485 1481 1475 1464 1456 1455 1454 1452 1451 1448 1444 1440 1436 1433 1429 1427 1424 1422 1420 1418 1417 1416 1414 1413 1413 1412 1412 1412 1412 1413 1413 1414
1497 1494 1491 1488 1485 1482 1479 1475 1471 1464 1453 1447 1446 1445 1443 1440 1437 1433 1429 1426 1422 1419 1416 1414 1411 1410 1408 1406 1405 1404 1403 1403 1403 1403 1403 1403 1404 1404
1490 1487 1484 1481 1477 1474 1471 1467 1464 1459 1448 1440 1440 1437 1434 1431 1428 1426 1422 1418 1414 1411 1408 1406 1403 1401 1400 1398 1397 1396 1395 1394 1393 1393 1393 1393 1394 1394
1483 1480 1477 1473 1470 1466 1463 1459 1455 1451 1444 1434 1430 1429 1426 1424 1420 1417 1414 1411 1407 1404 1401 1398 1396 1394 1392 1390 1389 1387 1386 1385 1384 1384 1384 1384 1384 1385
1476 1472 1469 1465 1461 1458 1454 1450 1446 1442 1437 1430 1422 1420 1418 1416 1413 1409 1406 1403 1400 1396 1393 1390 1387 1385 1384 1382 1381 1379 1378 1377 1376 1375 1375 1375 1375 1375
1469 1465 1461 1458 1453 1449 1445 1441 1437 1433 1429 1423 1417 1413 1410 1408 1405 1401 1397 1394 1391 1388 1385 1382 1380 1378 1376 1375 1373 1371 1370 1368 1367 1366 1366 1366 1366 1366
1460 1457 1453 1449 1445 1441 1437 1433 1430 1425 1421 1416 1411 1406 1402 1400 1398 1395 1390 1385 1382 1380 1376 1374 1372 1370 1368 1366 1365 1363 1362 1360 1359 1359 1358 1358 1358 1359
1451 1448 1444 1441 1437 1433 1430 1426 1423 1419 1414 1410 1404 1400 1396 1394 1391 1387 1383 1379 1374 1372 1370 1366 1365 1361 1360 1358 1357 1355 1354 1353 1352 1352 1351 1351 1351 1351
1443 1439 1434 1431 1428 1423 1419 1416 1413 1410 1407 1404 1397 1393 1389 1386 1383 1379 1375 1371 1367 1365 1363 1358 1356 1354 1352 1351 1350 1348 1347 1346 1345 1345 1344 1344 1344 1344
1435 1431 1426 1422 1418 1414 1409 1405 1402 1400 1397 1394 1389 1385 1381 1378 1375 1371 1367 1363 1359 1358 1356 1352 1349 1347 1345 1344 1343 1342 1340 1339 1339 1338 1338 1338 1338 1338
1426 1422 1418 1413 1410 1407 1403 1398 1393 1390 1388 1385 1381 1378 1374 1371 1369 1364 1360 1357 1352 1350 1349 1346 1343 1341 1338 1337 1336 1336 1335 1334 1333 1332 1332 1332 1332 1332
1416 1413 1410 1406 1402 1399 1396 1390 1385 1381 1378 1374 1371 1368 1365 1362 1360 1357 1353 1350 1346 1343 1342 1341 1338 1336 1333 1331 1331 1331 1330 1329 1328 1327 1327 1327 1327 1326
1408 1404 1401 1398 1395 1391 1388 1383 1379 1375 1370 1366 1362 1358 1356 1353 1351 1348 1346 1344 1341 1338 1337 1336 1333 1331 1330 1327 1326 1326 1325 1324 1324 1323 1323 1322 1322 1322
1401 1396 1393 1389 1386 1383 1379 1375 1371 1367 1362 1358 1354 1351 1348 1345 1343 1341 1339 1337 1335 1333 1331 1330 1328 1327 1325 1323 1322 1321 1321 1320 1320 1319 1319 1319 1318 1318
1394 1389 1386 1382 1378 1374 1370 1367 1363 1359 1354 1350 1347 1344 1341 1339 1337 1334 1332 1330 1328 1327 1325 1324 1323 1322 1321 1319 1318 1317 1317 1317 1316 1316 1316 1315 1315 1315
1385 1381 1377 1373 1369 1365 1362 1358 1355 1351 1348 1344 1341 1338 1336 1333 1331 1329 1326 1324 1322 1321 1320 1319 1318 1317 1316 1315 1315 1314 1314 1314 1313 1313 1313 1313 1313 1313
1377 1372 1368 1364 1360 1357 1353 1350 1347 1344 1341 1338 1335 1332 1330 1328 1326 1324 1322 1320 1318 1316 1315 1314 1313 1312 1312 1311 1311 1310 1310 1310 1310 1311 1311 1311 1311 1311
1371 1365 1361 1357 1353 1349 1346 1343 1340 1337 1335 1332 1330 1327 1325 1323 1321 1319 1317 1316 1314 1312 1311 1310 1309 1308 1308 1307 1308 1307 1307 1307 1308 1308 1309 1309 1309 1310
1362 1357 1354 1350 1346 1343 1339 1336 1333 1331 1329 1326 1324 1322 1320 1318 1316 1314 1313 1311 1310 1308 1307 1307 1306 1305 1305 1304 1305 1305 1305 1305 1305 1306 1306 1307 1308 1308
1354 1350 1346 1343 1339 1336 1333 1330 1327 1324 1322 1320 1318 1316 1314 1313 1311 1309 1308 1307 1306 1304 1303 1303 1302 1302 1301 1302 1301 1301 1302 1302 1303 1303 1304 1305 1306 1307
1346 1342 1339 1335 1332 1329 1326 1323 1320 1318 1315 1314 1312 1310 1309 1307 1306 1304 1303 1302 1301 1300 1299 1299 1298 1298 1298 1298 1298 1298 1299 1300 1300 1301 1302 1303 1303 1304
1338 1334 1331 1328 1324 1321 1318 1316 1313 1311 1309 1307 1305 1304 1303 1301 1300 1299 1298 1297 1296 1295 1295 1294 1294 1294 1294 1294 1294 1294 1295 1296 1297 1298 1299 1300 1301 1302
1330 1326 1323 1320 1317 1314 1311 1308 1306 1304 1302 1301 1299 1298 1296 1295 1294 1293 1292 1292 1291 1290 1290 1289 1290 1290 1290 1290 1290 1291 1292 1293 1294 1295 1296 1297 1299 1300